Mayfield, KY

2:50 AM CST on December 04, 2016 (GMT -0600)
Mayfld Grav Cnty AP, Mayfield

Weather History for KM25 - February, 2014

Change the Weather History Date:

Wednesday, February 5, 2014

  Actual Average (KPAH) Record (KPAH)
Temperature  
Mean Temperature 26 °F 37 °F  
Max Temperature 32 °F 46 °F 76 °F (2008)
Min Temperature 21 °F 27 °F 5 °F (1996)
Degree Days  
Heating Degree Days 38 28  
Month to date heating degree days 144  
Since 1 July heating degree days 2717  
Cooling Degree Days 0 0  
Month to date cooling degree days 0  
Year to date cooling degree days 0  
Moisture  
Dew Point 24 °F    
Average Humidity 90    
Maximum Humidity 100    
Minimum Humidity 80    
Precipitation  
Precipitation 0.00 in 0.14 in 1.61 in (1991)
Month to date precipitation 0.72  
Year to date precipitation 4.40  
Snow  
Snow 0.00 in 0.10 in 3.00 in (1984)
Month to date snowfall 0.6  
Since 1 July snowfall 5.9  
Snow Depth -    
Sea Level Pressure  
Sea Level Pressure 30.23 in    
Wind  
Wind Speed 0 mph (North)    
Max Wind Speed 0 mph    
Max Gust Speed -    
Visibility 3 miles    
Events Snow    
T = Trace of Precipitation, MM = Missing Value Source: NWS Daily Summary

Daily Weather History Graph

Daily Weather History Graph

Search for Another Location

Airport or City:

Trip Planner

Search our weather history database for the weather conditions in past years. The results will help you decide how hot, cold, wet, or windy it might be!

Date:

Astronomy

Feb. 05, 2014 Rise Set
Actual Time 6:52 AM CST 5:24 PM CST
Civil Twilight 6:25 AM CST 5:51 PM CST
Nautical Twilight 5:55 AM CST 6:22 PM CST
Astronomical Twilight 5:24 AM CST 6:52 PM CST
Moon 10:18 AM CST (2/5) No Moon Set
Length of Visible Light 11h 25m
Length of Day
10h 31m
Waxing Crescent, 39% of the Moon is Illuminated
Feb 5
Waxing Crescent
Feb 6
First Quarter
Feb 14
Full
Feb 22
Last Quarter
Mar 1
New

Hourly Weather History & Observations

Time (CST) Temp. Dew Point Humidity Pressure Visibility Wind Dir Wind Speed Gust Speed Precip Events Conditions
12:15 AM 32.0 °F 32.0 °F 100% 29.86 in 1.5 mi Calm Calm - N/A   Overcast
12:35 AM 32.0 °F 32.0 °F 100% 29.86 in 1.8 mi Calm Calm - N/A   Overcast
12:55 AM 32.0 °F 32.0 °F 100% 29.85 in 1.8 mi Calm Calm - N/A   Overcast
1:15 AM 32.0 °F 32.0 °F 100% 29.87 in 1.8 mi Calm Calm - N/A   Overcast
1:35 AM 32.0 °F 32.0 °F 100% 29.89 in 2.0 mi Calm Calm - N/A   Overcast
1:55 AM 32.0 °F 32.0 °F 100% 29.90 in 1.0 mi Calm Calm - N/A   Overcast
2:15 AM 32.0 °F 32.0 °F 100% 29.91 in 1.5 mi Calm Calm - N/A   Overcast
2:35 AM 32.0 °F 32.0 °F 100% 29.92 in 1.5 mi Calm Calm - N/A   Overcast
2:55 AM 32.0 °F 32.0 °F 100% 29.92 in 1.8 mi Calm Calm - N/A   Overcast
3:15 AM 32.0 °F 32.0 °F 100% 29.93 in 2.0 mi Calm Calm - N/A   Overcast
3:35 AM 32.0 °F 32.0 °F 100% 29.94 in 2.0 mi Calm Calm - N/A   Overcast
3:55 AM 32.0 °F 30.2 °F 93% 29.95 in 2.0 mi Calm Calm - N/A   Overcast
4:15 AM 30.2 °F 30.2 °F 100% 29.96 in 2.0 mi Calm Calm - N/A   Overcast
4:35 AM 30.2 °F 30.2 °F 100% 29.98 in 2.0 mi Calm Calm - N/A   Overcast
4:55 AM 30.2 °F 30.2 °F 100% 29.99 in 2.0 mi Calm Calm - N/A   Overcast
5:15 AM 30.2 °F 28.4 °F 93% 30.00 in 2.0 mi Calm Calm - N/A   Overcast
5:35 AM 30.2 °F 28.4 °F 93% 30.02 in 2.5 mi Calm Calm - N/A   Overcast
5:55 AM 30.2 °F 28.4 °F 93% 30.03 in 2.5 mi Calm Calm - N/A   Overcast
6:15 AM 28.4 °F 28.4 °F 100% 30.05 in 2.5 mi Calm Calm - N/A   Overcast
6:35 AM 28.4 °F 28.4 °F 100% 30.06 in 2.5 mi Calm Calm - N/A   Overcast
6:55 AM 28.4 °F 26.6 °F 93% 30.08 in 2.5 mi Calm Calm - N/A   Overcast
7:15 AM 28.4 °F 26.6 °F 93% 30.10 in 2.5 mi Calm Calm - N/A   Overcast
7:35 AM 28.4 °F 26.6 °F 93% 30.12 in 2.0 mi Calm Calm - N/A   Overcast
7:55 AM 26.6 °F 23.0 °F 86% 30.14 in 1.8 mi Calm Calm - N/A   Overcast
8:15 AM 26.6 °F 24.8 °F 93% 30.15 in 1.8 mi Calm Calm - N/A   Overcast
8:35 AM 26.6 °F 23.0 °F 86% 30.16 in 1.5 mi Calm Calm - N/A   Overcast
8:55 AM 26.6 °F 23.0 °F 86% 30.19 in 1.5 mi Calm Calm - N/A   Overcast
9:15 AM 26.6 °F 21.2 °F 80% 30.20 in 1.8 mi Calm Calm - N/A   Overcast
9:35 AM 26.6 °F 21.2 °F 80% 30.22 in 1.8 mi Calm Calm - N/A   Overcast
9:55 AM 26.6 °F 23.0 °F 86% 30.22 in 1.8 mi Calm Calm - N/A   Overcast
10:15 AM 26.6 °F 23.0 °F 86% 30.24 in 2.0 mi Calm Calm - N/A   Overcast
10:35 AM 26.6 °F 21.2 °F 80% 30.25 in 2.0 mi Calm Calm - N/A   Overcast
10:55 AM 26.6 °F 21.2 °F 80% 30.26 in 2.0 mi Calm Calm - N/A   Overcast
11:15 AM 26.6 °F 21.2 °F 80% 30.26 in 2.5 mi Calm Calm - N/A   Overcast
11:35 AM 26.6 °F 23.0 °F 86% 30.26 in 2.5 mi Calm Calm - N/A   Overcast
11:55 AM 26.6 °F 23.0 °F 86% 30.27 in 2.0 mi Calm Calm - N/A   Overcast
12:15 PM 26.6 °F 21.2 °F 80% 30.28 in 2.0 mi Calm Calm - N/A   Overcast
12:35 PM 26.6 °F 23.0 °F 86% 30.28 in 2.0 mi Calm Calm - N/A   Overcast
12:55 PM 26.6 °F 23.0 °F 86% 30.28 in 1.8 mi Calm Calm - N/A   Overcast
1:15 PM 26.6 °F 23.0 °F 86% 30.29 in 1.5 mi Calm Calm - N/A Snow Light Snow
1:35 PM 26.6 °F 23.0 °F 86% 30.29 in 1.2 mi Calm Calm - N/A Snow Light Snow
1:55 PM 26.6 °F 23.0 °F 86% 30.29 in 1.8 mi Calm Calm - N/A   Overcast
2:15 PM 26.6 °F 23.0 °F 86% 30.31 in 1.8 mi Calm Calm - N/A Snow Light Snow
2:35 PM 26.6 °F 23.0 °F 86% 30.31 in 1.8 mi Calm Calm - N/A Snow Light Snow
2:55 PM 26.6 °F 23.0 °F 86% 30.32 in 1.8 mi Calm Calm - N/A Snow Light Snow
3:15 PM 26.6 °F 23.0 °F 86% 30.33 in 1.8 mi Calm Calm - N/A   Overcast
3:35 PM 26.6 °F 23.0 °F 86% 30.33 in 1.8 mi Calm Calm - N/A   Overcast
3:55 PM 26.6 °F 23.0 °F 86% 30.35 in 1.2 mi Calm Calm - N/A Snow Light Snow
4:15 PM 26.6 °F 24.8 °F 93% 30.36 in 1.5 mi Calm Calm - N/A Snow Light Snow
4:35 PM 26.6 °F 23.0 °F 86% 30.36 in 2.0 mi Calm Calm - N/A   Overcast
4:55 PM 26.6 °F 24.8 °F 93% 30.39 in 1.8 mi Calm Calm - N/A Snow Light Snow
5:15 PM 26.6 °F 23.0 °F 86% 30.39 in 2.0 mi Calm Calm - N/A   Overcast
5:35 PM 26.6 °F 23.0 °F 86% 30.40 in 2.5 mi Calm Calm - N/A   Overcast
5:55 PM 26.6 °F 23.0 °F 86% 30.41 in 4.0 mi Calm Calm - N/A   Overcast
6:15 PM 26.6 °F 23.0 °F 86% 30.42 in 4.0 mi Calm Calm - N/A   Overcast
6:35 PM 26.6 °F 23.0 °F 86% 30.44 in 4.0 mi Calm Calm - N/A   Overcast
6:55 PM 26.6 °F 21.2 °F 80% 30.44 in 4.0 mi Calm Calm - N/A   Overcast
7:15 PM 24.8 °F 21.2 °F 86% 30.45 in 4.0 mi Calm Calm - N/A   Overcast
7:35 PM 24.8 °F 21.2 °F 86% 30.46 in 5.0 mi Calm Calm - N/A   Overcast
7:55 PM 24.8 °F 21.2 °F 86% 30.46 in 5.0 mi Calm Calm - N/A   Overcast
8:15 PM 24.8 °F 21.2 °F 86% 30.47 in 5.0 mi Calm Calm - N/A   Overcast
8:35 PM 23.0 °F 21.2 °F 93% 30.48 in 5.0 mi Calm Calm - N/A   Overcast
8:55 PM 23.0 °F 19.4 °F 86% 30.48 in 5.0 mi Calm Calm - N/A   Overcast
9:15 PM 23.0 °F 19.4 °F 86% 30.48 in 5.0 mi Calm Calm - N/A   Overcast
9:35 PM 23.0 °F 19.4 °F 86% 30.49 in 5.0 mi Calm Calm - N/A   Overcast
9:55 PM 23.0 °F 19.4 °F 86% 30.48 in 5.0 mi Calm Calm - N/A   Overcast
10:15 PM 23.0 °F 19.4 °F 86% 30.48 in 5.0 mi Calm Calm - N/A   Overcast
10:35 PM 23.0 °F 19.4 °F 86% 30.50 in 5.0 mi Calm Calm - N/A   Overcast
10:55 PM 21.2 °F 19.4 °F 93% 30.51 in 5.0 mi Calm Calm - N/A   Overcast
11:15 PM 21.2 °F 17.6 °F 86% 30.50 in 7.0 mi Calm Calm - N/A   Overcast
11:35 PM 21.2 °F 17.6 °F 86% 30.49 in 5.0 mi Calm Calm - N/A   Overcast
11:55 PM 21.2 °F 17.6 °F 86% 30.50 in 7.0 mi Calm Calm - N/A   Overcast